Change the Weather History Date:

Sunday, December 30, 2012

  Actual Average Record
Temperature  
Mean Temperature 30 °F -  
Max Temperature 33 °F 44 °F 64 °F (1996)
Min Temperature 26 °F 27 °F 10 °F (2001)
Degree Days  
Heating Degree Days 36    
Moisture  
Dew Point 21 °F    
Average Humidity 70    
Maximum Humidity 93    
Minimum Humidity 60    
Precipitation  
Precipitation 0.00 in - - ()
Sea Level Pressure  
Sea Level Pressure 30.42 in    
Wind  
Wind Speed 6 mph (West)    
Max Wind Speed 14 mph    
Max Gust Speed 21 mph    
Visibility 10 miles    
Events      
Averages and records for this station are not official NWS values.
T = Trace of Precipitation, MM = Missing Value Source: NWS Daily Summary

Daily Weather History Graph

Daily Weather History Graph

Search for Another Location

Airport or City:

Trip Planner

Search our weather history database for the weather conditions in past years. The results will help you decide how hot, cold, wet, or windy it might be!

Date:

Astronomy

Dec. 30, 2012 Rise Set
Actual Time 7:51 AM EST 5:31 PM EST
Civil Twilight 7:22 AM EST 6:00 PM EST
Nautical Twilight 6:50 AM EST 6:32 PM EST
Astronomical Twilight 6:18 AM EST 7:04 PM EST
Moon 7:57 PM EST (12/30) 9:03 AM EST (12/30)
Length of Visible Light 10h 37m
Length of Day
9h 39m
Waning Gibbous, 95% of the Moon is Illuminated
Dec 30
Waning Gibbous
Jan 4
Last Quarter
Jan 11
New
Jan 18
First Quarter
Jan 26
Full

Hourly Weather History & Observations

Time (EST) Temp. Windchill Dew Point Humidity Pressure Visibility Wind Dir Wind Speed Gust Speed Precip Events Conditions
12:15 AM 28.4 °F 19.7 °F 19.4 °F 69% 30.30 in 10.0 mi NW 9.2 mph 17.3 mph N/A   Overcast
12:35 AM 28.4 °F 17.5 °F 19.4 °F 69% 30.30 in 10.0 mi NW 13.8 mph - N/A   Overcast
12:55 AM 28.4 °F 18.5 °F 19.4 °F 69% 30.31 in 10.0 mi WNW 11.5 mph 16.1 mph N/A   Overcast
1:15 AM 28.4 °F 18.5 °F 19.4 °F 69% 30.31 in 10.0 mi WNW 11.5 mph 20.7 mph N/A   Overcast
1:55 AM 28.4 °F 19.7 °F 19.4 °F 69% 30.32 in 10.0 mi NW 9.2 mph 16.1 mph N/A   Overcast
2:15 AM 26.6 °F 16.2 °F 19.4 °F 74% 30.34 in 10.0 mi NW 11.5 mph 17.3 mph N/A   Overcast
2:35 AM 28.4 °F 19.1 °F 19.4 °F 69% 30.35 in 10.0 mi WNW 10.4 mph - N/A   Overcast
2:55 AM 26.6 °F 15.7 °F 19.4 °F 74% 30.36 in 10.0 mi WNW 12.7 mph 16.1 mph N/A   Overcast
3:15 AM 26.6 °F 20.0 °F 19.4 °F 74% 30.36 in 10.0 mi WNW 5.8 mph - N/A   Overcast
3:35 AM 26.6 °F 20.0 °F 19.4 °F 74% 30.37 in 10.0 mi NW 5.8 mph - N/A   Overcast
3:55 AM 26.6 °F 16.8 °F 19.4 °F 74% 30.38 in 10.0 mi WNW 10.4 mph 16.1 mph N/A   Overcast
4:15 AM 26.6 °F 17.5 °F 17.6 °F 69% 30.38 in 10.0 mi NW 9.2 mph - N/A   Overcast
8:35 AM 26.6 °F - 17.6 °F 69% 30.47 in 10.0 mi Calm Calm - N/A   Overcast
8:55 AM 26.6 °F - 17.6 °F 69% 30.47 in 10.0 mi Calm Calm - N/A   Scattered Clouds
9:15 AM 28.4 °F 24.6 °F 19.4 °F 69% 30.48 in 10.0 mi WNW 3.5 mph - N/A   Clear
9:35 AM 28.4 °F 23.3 °F 19.4 °F 69% 30.48 in 10.0 mi West 4.6 mph - N/A   Clear
9:55 AM 28.4 °F - 19.4 °F 69% 30.48 in 10.0 mi Calm Calm - N/A   Clear
10:15 AM 28.4 °F - 19.4 °F 69% 30.50 in 10.0 mi Calm Calm - N/A   Scattered Clouds
10:35 AM 30.2 °F 26.7 °F 19.4 °F 64% 30.50 in 10.0 mi SW 3.5 mph - N/A   Mostly Cloudy
10:55 AM 28.4 °F 23.3 °F 19.4 °F 69% 30.51 in 10.0 mi SW 4.6 mph - N/A   Mostly Cloudy
11:15 AM 30.2 °F 22.6 °F 19.4 °F 64% 30.51 in 10.0 mi WSW 8.1 mph - N/A   Mostly Cloudy
11:35 AM 30.2 °F 23.4 °F 19.4 °F 64% 30.51 in 10.0 mi SW 6.9 mph - N/A   Scattered Clouds
11:55 AM 32.0 °F 26.4 °F 21.2 °F 64% 30.51 in 10.0 mi West 5.8 mph - N/A   Scattered Clouds
12:15 PM 32.0 °F 24.2 °F 21.2 °F 64% 30.51 in 10.0 mi West 9.2 mph - N/A   Mostly Cloudy
12:35 PM 32.0 °F 27.5 °F 21.2 °F 64% 30.50 in 10.0 mi SW 4.6 mph - N/A   Scattered Clouds
12:55 PM 32.0 °F - 21.2 °F 64% 30.48 in 10.0 mi Calm Calm - N/A   Clear
1:15 PM 32.0 °F 27.5 °F 21.2 °F 64% 30.46 in 10.0 mi West 4.6 mph - N/A   Clear
1:35 PM 32.0 °F - 19.4 °F 60% 30.46 in 10.0 mi Calm Calm - N/A   Clear
1:55 PM 33.8 °F - 21.2 °F 60% 30.45 in 10.0 mi Calm Calm - N/A   Clear
2:15 PM 33.8 °F - 21.2 °F 60% 30.43 in 10.0 mi Calm Calm - N/A   Clear
2:35 PM 33.8 °F - 21.2 °F 60% 30.42 in 10.0 mi Calm Calm - N/A   Clear
2:55 PM 33.8 °F 30.8 °F 21.2 °F 60% 30.42 in 10.0 mi South 3.5 mph - N/A   Clear
3:15 PM 33.8 °F 30.8 °F 21.2 °F 60% 30.42 in 10.0 mi SW 3.5 mph - N/A   Clear
3:35 PM 33.8 °F 29.6 °F 21.2 °F 60% 30.43 in 10.0 mi SSW 4.6 mph - N/A   Clear
3:55 PM 33.8 °F - 21.2 °F 60% 30.44 in 10.0 mi Calm Calm - N/A   Clear
4:15 PM 33.8 °F - 21.2 °F 60% 30.45 in 10.0 mi Calm Calm - N/A   Clear
4:35 PM 33.8 °F 29.6 °F 21.2 °F 60% 30.45 in 10.0 mi West 4.6 mph - N/A   Clear
4:55 PM 33.8 °F 27.7 °F 21.2 °F 60% 30.45 in 10.0 mi West 6.9 mph - N/A   Clear
5:15 PM 33.8 °F - 21.2 °F 60% 30.44 in 10.0 mi Calm Calm - N/A   Clear
5:35 PM 32.0 °F - 21.2 °F 64% 30.44 in 10.0 mi Calm Calm - N/A   Clear
5:55 PM 32.0 °F - 21.2 °F 64% 30.43 in 10.0 mi Calm Calm - N/A   Clear
6:15 PM 32.0 °F - 21.2 °F 64% 30.43 in 10.0 mi Calm Calm - N/A   Clear
6:35 PM 32.0 °F - 21.2 °F 64% 30.43 in 10.0 mi Calm Calm - N/A   Clear
6:55 PM 32.0 °F - 23.0 °F 69% 30.42 in 10.0 mi Calm Calm - N/A   Clear
7:15 PM 30.2 °F - 23.0 °F 75% 30.43 in 10.0 mi Calm Calm - N/A   Clear
7:35 PM 30.2 °F - 23.0 °F 75% 30.44 in 10.0 mi Calm Calm - N/A   Clear
7:55 PM 30.2 °F - 23.0 °F 75% 30.42 in 10.0 mi Calm Calm - N/A   Clear
8:15 PM 28.4 °F - 24.8 °F 86% 30.42 in 10.0 mi Calm Calm - N/A   Clear
8:35 PM 30.2 °F - 24.8 °F 80% 30.42 in 10.0 mi Calm Calm - N/A   Clear
8:55 PM 28.4 °F - 23.0 °F 80% 30.41 in 10.0 mi Calm Calm - N/A   Clear
9:15 PM 28.4 °F - 23.0 °F 80% 30.40 in 10.0 mi Calm Calm - N/A   Clear
9:35 PM 28.4 °F - 24.8 °F 86% 30.40 in 10.0 mi Calm Calm - N/A   Clear
9:55 PM 28.4 °F - 23.0 °F 80% 30.40 in 10.0 mi Calm Calm - N/A   Clear
10:15 PM 28.4 °F - 23.0 °F 80% 30.41 in 10.0 mi Calm Calm - N/A   Clear
10:35 PM 28.4 °F - 23.0 °F 80% 30.42 in 10.0 mi Calm Calm - N/A   Clear
10:55 PM 26.6 °F - 23.0 °F 86% 30.41 in 10.0 mi Calm Calm - N/A   Clear
11:15 PM 26.6 °F - 23.0 °F 86% 30.41 in 10.0 mi Calm Calm - N/A   Clear
11:35 PM 26.6 °F - 23.0 °F 86% 30.40 in 10.0 mi Calm Calm - N/A   Clear
11:55 PM 26.6 °F - 24.8 °F 93% 30.40 in 10.0 mi Calm Calm - N/A   Clear